Regional Weather Roundup
Issued by NWS Sioux Falls, SD

Home | Current Version | Previous Version | Text Only | Print | Product List | Glossary On
Versions: 1 2 3 4 5 6 7 8 9 10 11 12 13 14 15 16 17 18 19 20 21 22 23 24 25 26 27 28 29 30 31 32 33 34 35 36 37 38 39 40 41 42 43 44 45 46 47 48 49 50
000
ASUS43 KFSD 231410
RWRFSD

WEATHER ROUNDUP FOR SE SOUTH DAKOTA/SW MINNESOTA/NW IOWA
NATIONAL WEATHER SERVICE SIOUX FALLS SD
900 AM CDT MON OCT 23 2017

NOTE: "FAIR" INDICATES FEW OR NO CLOUDS BELOW 12,000 FEET WITH NO
SIGNIFICANT WEATHER AND OR OBSTRUCTIONS TO VISIBILITY.


SDZ038>040-050-052>070-231500-
SOUTHEAST SOUTH DAKOTA

CITY           SKY/WX    TMP DP  RH WIND       PRES   REMARKS
BROOKINGS      PTSUNNY   49  38  65 NW15      29.93R
CHAMBERLAIN    CLEAR     51  37  60 W16G24    30.08R
HURON          CLEAR     49  39  68 NW22G29   29.98R
MADISON        PTSUNNY   48  39  71 NW20G30   29.95R
MITCHELL       PTCLDY    51  38  60 NW17G28   30.02R
SIOUX FALLS    MOSUNNY   52  39  61 NW18G31   29.94R
WINNER         CLOUDY    52  33  48 NW18      30.12R
YANKTON        CLOUDY    53  38  56 NW21      30.00R
$$

MNZ071-072-080-081-089-090-097-098-231500-
SOUTHWEST MINNESOTA

CITY           SKY/WX    TMP DP  RH WIND       PRES   REMARKS
FAIRMONT       MOSUNNY   54  41  61 NW16      29.86R
JACKSON        CLOUDY    52  39  62 NW14      29.87S
LUVERNE        CLOUDY    50  36  57 NW17      29.93R
MARSHALL       PTSUNNY   51  39  63 NW21G28   29.87R
MONTEVIDEO     SUNNY     52  39  62 NW15      29.85R
PIPESTONE      MOSUNNY   48  37  66 NW13G21   29.91R
REDWOOD FALLS  CLOUDY    53  39  59 NW16      29.83R
TRACY          CLOUDY    53  41  64 NW16G24   29.88R
WORTHINGTON    PTSUNNY   51  40  65 NW17G23   29.90R
$$

IAZ001>003-012>014-020>022-031-032-NEZ013-014-SDZ071-231500-
NORTHWEST IOWA

CITY           SKY/WX    TMP DP  RH WIND       PRES   REMARKS
CHEROKEE       CLOUDY    54  40  59 NW10G17   29.92R
DENISON        SUNNY     55  39  54 N15G21    29.91F
ESTHERVILLE    CLOUDY    53  41  63 NW14G26   29.87R
LE MARS        MOSUNNY   54  41  62 NW14G21   29.94S
ORANGE CITY    MOSUNNY   54  41  62 NW15G22   29.93R
SHELDON        MOSUNNY   54  39  58 NW13G18   29.91R
SIOUX CITY     CLOUDY    56  41  57 NW18G26   29.94R
SPENCER        LGT RAIN  53  41  63 NW14G24   29.89R
STORM LAKE     MOSUNNY   54  39  58 NW15      29.90S
$$

ABBREVIATIONS USED IN REMARKS
   TC - TEMPERATURE IN CELSIUS
  WCI - WIND CHILL INDEX
   HX - HEAT INDEX
  VSB - VISIBILITY





USA.gov is the U.S. government's official web portal to all federal, state and local government web resources and services.